Location: Burleson Alternative School
(32.5290°N, 97.3406°W)
Time: 07:43:37
(UTC+00:00)

Transit 2A Rocket - Pass Details

Date: 16 November 2024
Orbit: 586 x 903 km, 66.7° (Epoch: 06 December)

Event Time Altitude Azimuth Distance (km) Brightness Sun altitude
Rises 01:21:35 0° 314° (NW) 3,104 8.7 -23.9°
Reaches altitude 10° 01:24:46 10° 294° (WNW) 2,115 8.0 -24.5°
Maximum altitude 01:27:43 16° 256° (WSW) 1,664 7.6 -25.2°
Drops below altitude 10° 01:30:32 10° 217° (SW) 2,001 7.7 -25.8°
Sets 01:33:26 0° 196° (SSW) 2,858 8.2 -26.4°
